Location: Black Skies Observatory
(44.7549°N, 79.7179°W)
Time: 14:03:59
(UTC-05:00)

Envisat - Pass Details

Date: 08 November 2020
Orbit: 764 x 766 km, 98.1° (Epoch: 01 December)

Event Time Altitude Azimuth Distance (km) Brightness Sun altitude
Rises 06:13:27 0° 14° (NNE) 3,241 6.3 -9.9°
Reaches altitude 10° 06:15:46 10° 17° (NNE) 2,311 5.5 -9.5°
Maximum altitude 06:20:52 74° 102° (ESE) 797 3.3 -8.6°
Drops below altitude 10° 06:25:55 10° 188° (S) 2,293 5.6 -7.7°
Sets 06:28:13 0° 190° (S) 3,215 6.3 -7.3°
